Theta_e
312 313 312 312 312 312 313 313 312 313 313 313 313 312 307 306 306 306 307 307 307 308 309 311 311 312 311 310 312 312 312 314 314 314 314 314 315 316 317 316 316 317 316 315 317 316 316
312 312 312 312 312 312 312 312 310 313 312 314 312 307 305 305 305 306 306 306 307 307 309 309 310 311 311 311 312 312 313 314 313 315 313 313 315 315 316 316 316 316 316 317 316 316 315
312 311 311 312 312 312 312 311 311 310 311 311 312 306 305 305 306 306 306 306 307 307 308 309 310 311 309 311 312 313 313 314 314 314 312 312 313 314 315 315 315 316 316 315 315 315 316
312 311 311 311 311 310 308 307 306 309 311 310 309 306 306 307 307 306 306 306 307 307 308 309 310 312 309 311 311 312 313 314 313 313 312 313 313 313 315 314 316 317 316 316 315 316 315
311 311 310 310 309 310 306 303 304 305 306 306 307 306 307 307 306 306 306 306 307 309 309 309 310 311 310 310 310 311 313 314 314 313 313 313 313 313 313 316 316 318 319 315 315 313 316
310 310 310 310 310 309 306 304 305 305 305 304 305 306 307 306 306 306 306 306 308 309 309 309 309 307 308 309 309 310 312 313 314 313 314 314 313 315 315 316 318 318 319 317 317 313 317
309 309 309 310 310 308 305 305 305 306 305 304 306 306 307 306 306 306 306 308 303 303 307 308 308 309 308 309 309 311 312 312 312 312 313 313 315 314 316 315 315 315 314 318 315 313 317
309 309 310 311 310 308 305 306 306 306 305 304 306 306 307 307 306 307 308 303 304 304 304 308 308 308 308 309 309 308 311 311 311 312 309 308 311 309 312 314 316 314 313 318 313 315 317
309 309 310 311 309 308 306 306 306 306 306 305 306 306 308 307 308 306 306 306 308 308 306 306 308 307 307 308 309 309 308 309 311 311 311 311 310 308 311 310 310 309 311 315 315 318 317
309 309 309 310 308 308 307 307 307 306 306 305 306 306 309 308 308 308 306 307 308 306 303 305 307 308 308 307 307 307 308 308 309 310 310 310 308 310 310 311 309 310 308 309 313 316 320
308 308 309 308 306 306 307 308 307 307 306 305 307 307 309 308 308 309 308 306 307 306 302 304 306 308 307 308 307 308 307 307 310 309 308 309 310 311 310 311 311 311 309 312 312 313 313
309 308 308 307 306 306 307 308 308 307 307 305 307 308 308 308 306 307 306 307 307 304 300 306 307 308 309 307 307 306 306 305 306 307 306 308 306 310 310 310 310 309 310 311 309 311 317
307 308 308 307 306 306 307 308 308 308 307 305 308 308 308 308 307 306 306 307 306 304 303 307 309 309 308 308 307 306 306 306 308 306 307 305 307 307 308 309 308 308 311 313 316 316 316
307 307 307 307 306 306 306 308 309 309 308 306 308 308 308 308 306 307 308 303 303 302 306 307 309 308 308 307 307 306 306 304 306 305 303 306 308 307 308 308 309 309 310 313 313 315 313
307 307 307 307 307 306 306 307 308 309 308 306 308 308 309 307 309 309 303 303 305 303 308 309 308 309 307 306 306 306 306 306 306 307 309 307 308 306 309 308 307 309 309 306 310 307 310
309 308 307 307 307 306 306 307 308 309 309 306 309 310 308 307 308 306 303 308 306 306 308 309 309 308 308 306 305 307 307 306 307 307 305 308 309 306 308 307 308 308 307 309 310 316 316
311 310 309 308 307 307 306 307 308 309 309 306 310 307 308 307 308 302 306 304 306 306 307 310 309 308 307 307 304 305 306 306 307 306 306 306 307 307 305 307 308 308 309 307 307 311 313
313 312 311 310 308 307 307 306 308 309 309 306 303 307 307 308 308 299 304 305 307 308 307 309 308 306 307 304 304 304 306 305 305 306 308 305 303 306 306 306 307 307 308 307 308 307 306
313 313 312 311 309 307 307 306 307 309 309 307 303 303 307 307 309 303 303 308 308 308 308 308 309 307 305 306 306 303 304 305 305 305 303 303 302 305 305 305 306 308 306 305 304 305 307
312 314 313 313 311 308 307 307 307 309 310 307 303 309 304 301 300 305 307 307 308 306 308 307 307 306 306 306 304 305 304 305 305 305 306 302 300 304 303 305 305 305 307 306 305 306 303
306 310 313 313 313 310 308 307 307 308 310 307 301 307 304 307 306 305 306 306 308 308 307 305 306 305 306 307 306 304 303 304 305 307 304 301 305 299 300 301 302 303 303 305 306 305 304
301 303 310 312 313 312 309 308 307 308 310 307 305 304 301 302 303 304 306 306 306 307 306 307 307 306 304 305 305 306 305 305 305 304 304 300 306 304 304 304 302 303 302 301 302 305 303
300 301 302 308 312 313 311 308 307 308 309 306 303 302 301 304 303 305 305 306 306 306 306 305 305 305 305 305 303 303 302 302 303 304 303 304 304 306 308 303 304 306 304 303 302 301 303
299 300 301 304 306 312 312 309 307 307 309 308 304 303 301 306 303 305 305 304 305 306 307 306 304 305 305 302 302 303 303 304 303 303 301 303 304 303 308 306 308 306 303 304 304 304 300
299 298 299 302 304 309 312 311 308 307 309 309 307 303 301 303 302 303 304 304 305 305 306 306 305 302 301 304 304 304 303 305 304 302 303 302 303 306 307 307 306 306 305 305 306 307 302
298 298 299 300 302 306 311 312 308 308 308 310 308 306 300 301 303 304 303 302 304 304 303 304 302 301 302 303 305 305 306 306 307 305 301 301 301 305 305 309 311 306 304 301 302 306 301
297 297 297 298 304 305 307 311 309 308 308 310 308 307 303 300 300 301 303 304 301 302 302 303 303 303 301 303 306 306 306 304 307 307 306 307 305 308 308 309 307 305 302 301 307 306 299
296 296 297 297 305 308 308 311 309 308 308 310 308 308 305 301 303 301 301 301 301 301 303 301 303 302 301 305 305 305 304 304 305 304 306 308 308 307 306 309 311 303 303 307 303 300 301
294 294 296 295 302 309 310 311 309 308 308 310 308 308 306 305 306 305 304 303 303 302 301 299 303 302 303 303 302 302 305 303 305 309 303 309 306 308 307 309 304 302 302 299 299 300 300
Wind_Speed
9 10 11 12 13 14 15 15 15 15 14 13 11 9 7 7 7 8 8 10 11 9 8 9 9 11 3 4 1 9 11 9 6 2 3 3 1 1 2 2 3 3 5 6 7 6 5
9 10 11 12 13 13 15 15 16 16 16 15 13 9 7 8 9 10 9 9 9 10 9 8 10 8 2 5 6 7 9 8 7 2 2 1 1 2 1 2 3 1 4 6 6 6 3
9 10 11 11 12 13 14 15 16 17 17 16 14 10 8 9 9 11 10 9 9 10 7 7 9 6 2 2 5 5 6 6 5 2 2 1 2 2 6 3 5 3 4 5 6 4 5
9 10 10 10 11 12 13 15 17 17 17 18 14 9 8 10 10 10 10 9 8 11 6 6 6 5 3 2 5 3 4 2 4 3 2 2 2 2 2 3 3 3 1 3 3 5 5
10 10 11 12 12 12 13 15 17 19 20 22 15 8 8 11 9 9 7 7 7 6 4 4 2 2 5 4 3 4 3 0 0 2 3 1 3 2 3 2 3 2 3 5 9 7 6
9 11 11 13 13 13 14 15 16 18 21 23 18 8 9 11 9 7 4 5 4 3 2 1 2 3 3 5 5 4 2 3 1 0 3 1 3 2 2 1 2 2 3 3 6 3 5
9 10 11 13 14 14 15 15 17 18 20 23 18 9 10 10 7 4 2 1 4 3 2 3 4 3 4 12 4 1 1 1 1 2 1 1 1 2 9 10 9 7 6 8 9 1 3
10 10 11 13 14 15 15 16 18 19 21 23 16 8 10 8 5 4 3 4 2 2 4 2 3 5 6 2 4 2 1 2 2 3 2 3 2 4 9 7 6 8 3 6 4 4 2
10 11 11 13 14 15 16 17 18 20 21 23 15 7 8 4 3 3 5 3 2 1 2 4 3 3 5 2 4 5 1 2 0 4 2 3 4 4 5 2 5 5 4 5 4 4 3
11 12 12 13 14 16 16 18 19 20 22 24 16 6 7 3 1 2 3 3 2 1 4 4 2 2 1 1 3 2 1 1 1 4 6 5 3 2 2 2 2 2 2 3 5 4 2
12 13 13 13 13 15 16 18 20 21 23 25 15 6 4 4 3 2 2 2 2 1 4 3 5 2 2 1 3 1 1 1 2 3 3 5 5 4 2 2 3 5 1 1 3 3 3
14 14 14 15 15 15 17 18 19 21 24 24 12 5 4 2 2 3 3 3 1 6 4 5 3 5 4 2 3 6 4 5 2 1 1 7 4 3 3 4 4 2 2 3 3 2 2
14 15 15 16 16 16 16 18 19 21 23 23 9 2 4 2 1 4 4 2 5 5 1 4 3 4 2 3 5 5 4 6 4 5 5 7 3 4 3 6 3 4 5 3 4 3 3
18 17 18 16 17 17 17 18 20 21 22 23 7 1 3 3 3 4 1 5 5 4 5 2 2 3 2 4 1 4 2 4 1 4 2 3 7 3 3 4 2 5 1 3 2 1 3
20 20 19 19 19 17 17 18 20 20 22 21 6 2 1 2 3 1 5 4 6 5 1 2 3 2 3 1 2 4 1 2 3 3 2 3 5 2 1 3 4 4 3 2 4 1 2
21 21 22 20 20 19 17 16 18 20 21 20 6 3 1 3 3 1 4 3 3 3 2 1 1 1 2 3 4 3 1 2 2 3 3 3 4 3 2 1 1 2 3 2 2 2 3
24 23 23 23 22 20 18 15 17 19 20 14 3 2 0 3 2 4 2 5 4 5 3 3 3 2 5 3 2 2 3 3 3 1 2 2 2 5 1 2 3 3 2 4 3 2 2
28 26 24 25 23 21 18 16 15 17 18 7 2 2 2 3 2 0 2 5 3 4 2 3 2 5 4 3 3 3 4 5 4 3 2 1 3 4 5 1 2 2 2 3 3 2 2
33 31 29 26 25 23 20 15 13 13 14 9 2 2 1 3 2 2 3 3 3 5 5 5 5 6 3 3 2 4 3 1 4 3 3 3 1 4 6 4 3 2 2 4 3 2 4
25 34 34 31 29 25 21 17 13 9 9 8 1 2 2 2 1 3 2 2 2 3 3 4 3 3 2 3 5 3 2 2 5 4 4 2 2 5 5 5 2 4 3 3 3 2 2
25 27 34 37 32 29 24 19 15 11 7 2 1 4 2 3 3 4 3 3 3 3 3 4 3 6 7 3 3 5 4 2 2 4 3 4 4 4 7 10 4 5 7 6 7 4 5
28 29 29 33 38 34 30 24 19 14 10 6 3 2 2 2 1 5 4 5 8 3 6 4 5 5 7 6 8 6 4 3 5 2 4 1 3 1 5 2 4 5 7 7 6 4 7
28 27 30 35 35 39 35 29 24 20 17 8 5 3 3 2 2 4 5 6 7 6 4 3 7 4 5 11 6 4 4 2 2 5 5 2 1 2 5 3 6 4 4 5 4 3 5
29 29 30 30 35 42 41 34 29 27 27 14 6 5 3 5 5 6 5 7 8 7 3 2 4 5 2 4 4 1 1 3 3 4 3 4 2 2 4 5 2 3 2 3 6 5 9
29 33 32 31 35 38 46 40 33 33 31 28 14 6 4 4 4 4 6 5 3 2 4 4 5 2 2 3 2 4 2 1 1 3 3 2 3 2 1 2 6 2 1 2 0 3 3
29 33 29 37 39 36 47 46 39 37 33 31 26 19 4 4 6 4 5 6 5 4 3 3 2 1 3 2 2 3 4 4 3 2 3 3 3 2 1 2 3 1 3 2 2 5 3
28 30 34 41 39 40 44 51 43 39 36 33 14 27 5 4 4 6 4 6 6 4 3 1 3 2 1 3 3 4 4 3 3 5 4 3 2 4 4 4 6 3 4 2 4 3 6
27 29 36 47 35 36 49 52 45 40 38 36 18 24 18 3 3 7 7 5 3 3 5 4 3 1 2 3 4 4 4 4 2 4 5 6 6 3 2 3 2 3 1 3 2 3 4
29 30 32 43 42 21 43 48 44 43 40 37 10 27 29 4 3 7 11 11 7 10 5 4 2 4 5 3 1 1 3 1 3 3 1 2 3 2 5 3 1 0 2 3 0 3 4
Wind_Direction
34 33 36 28 26 25 20 16 14 10 2 354 338 333 314 307 306 310 323 337 349 349 352 358 353 357 6 41 296 333 344 360 357 6 40 7 330 294 242 225 166 191 263 273 261 277 285
33 28 33 27 23 20 17 15 13 8 3 354 341 334 326 310 302 300 304 319 332 341 345 346 350 352 33 46 335 347 355 15 22 53 26 68 313 335 8 284 225 238 228 256 260 247 230
30 26 26 26 22 19 15 14 11 8 4 357 348 337 335 324 309 297 294 301 313 327 324 335 346 350 54 217 348 354 357 21 35 37 113 127 283 261 359 271 355 308 301 295 241 216 213
28 20 17 20 17 17 17 14 13 7 1 358 351 339 337 334 320 303 288 290 304 319 306 319 337 338 254 306 340 351 3 25 35 75 134 67 89 117 185 257 253 255 144 310 254 201 214
24 14 15 5 10 9 14 18 14 9 4 359 354 346 339 335 328 314 287 286 304 325 318 303 327 19 304 327 5 340 306 219 3 37 5 100 86 57 330 280 294 237 262 252 308 226 155
20 11 10 2 1 2 6 11 12 7 4 1 357 352 348 340 337 331 297 291 298 320 328 311 311 49 327 312 323 314 297 277 263 65 349 61 41 27 322 215 276 294 279 278 248 284 139
7 8 0 358 355 358 2 5 4 5 3 1 0 359 355 348 352 6 350 287 13 344 27 158 278 234 296 319 291 253 232 176 342 50 348 338 349 172 179 201 237 271 273 269 283 104 137
352 2 356 356 352 355 360 359 358 1 1 360 359 5 356 2 26 42 37 72 84 175 324 226 268 278 269 322 304 278 225 61 1 314 341 1 262 220 204 213 247 272 293 305 297 15 153
346 346 352 352 348 351 357 355 357 358 358 358 358 8 359 0 29 60 80 96 66 16 106 303 237 266 282 125 285 280 114 136 93 306 285 242 258 301 185 200 193 208 188 207 259 15 335
339 338 343 344 347 347 353 354 355 357 356 356 357 2 8 21 78 72 76 94 89 88 67 282 331 304 297 169 292 273 274 155 70 294 318 240 282 311 168 190 175 313 261 212 142 184 256
327 332 335 338 343 344 349 353 355 356 356 356 355 5 23 33 111 88 133 111 110 88 40 267 294 286 294 256 295 353 345 331 254 259 55 279 314 335 306 225 173 237 320 132 141 145 109
319 323 331 335 337 340 343 347 352 355 355 354 357 6 8 355 73 122 127 118 80 45 281 342 304 338 18 14 315 315 21 27 286 335 206 245 288 281 296 289 240 308 184 59 68 79 28
314 316 320 329 333 332 337 340 347 352 351 351 352 12 21 359 99 129 133 58 39 97 290 305 318 5 321 288 327 30 11 9 355 23 351 331 301 307 14 330 351 360 46 350 3 15 218
308 311 314 318 324 329 330 335 341 346 350 349 341 281 52 83 120 134 132 50 65 244 241 343 319 310 278 348 293 338 9 0 55 38 49 70 330 27 336 125 262 334 309 146 272 271 300
310 307 308 309 314 320 323 329 335 340 347 348 332 261 242 123 145 185 75 50 205 204 172 297 322 318 309 288 294 13 46 243 229 155 119 14 275 309 224 169 138 313 29 243 98 133 20
302 306 307 305 308 310 315 319 329 335 343 342 333 277 200 155 149 105 74 229 211 203 157 127 207 155 282 287 344 12 281 206 255 202 154 182 310 255 305 187 242 170 171 55 2 16 316
292 298 302 304 301 305 308 310 322 330 338 336 321 9 203 165 145 62 160 226 237 218 169 165 232 248 226 286 248 273 263 254 180 225 191 173 140 282 326 357 349 4 354 41 112 132 157
286 288 293 296 297 293 297 301 314 326 337 338 343 331 148 162 22 80 180 195 182 194 168 210 210 218 221 198 251 260 241 227 179 158 229 221 174 276 242 278 289 173 181 137 112 318 49
277 283 285 286 289 288 286 284 299 318 334 329 288 249 172 155 246 264 254 248 212 176 202 179 220 205 191 229 270 208 233 187 162 169 189 174 278 324 346 6 339 307 281 117 107 86 201
274 274 280 279 281 281 280 275 273 287 311 324 332 303 319 58 155 193 223 245 255 220 224 184 191 146 169 239 225 276 258 206 191 203 137 135 184 196 213 232 195 274 212 191 137 130 197
293 284 270 274 273 272 270 265 254 258 266 250 172 250 236 219 247 176 175 173 206 267 245 208 189 208 184 231 217 233 229 240 220 183 134 157 236 182 252 257 249 249 239 196 192 207 185
309 302 279 266 268 267 264 259 238 234 237 204 203 187 342 258 167 154 185 228 194 223 168 234 226 184 190 205 205 209 190 206 219 189 190 219 262 217 284 184 194 269 247 231 230 205 258
322 309 293 277 263 262 260 252 236 223 214 209 206 190 139 223 157 138 217 207 212 161 217 206 200 180 201 235 223 223 204 180 227 177 199 198 204 23 266 344 308 290 234 184 198 200 167
325 313 310 295 272 256 256 249 234 223 218 211 194 148 141 243 186 200 204 192 204 207 230 223 173 170 232 100 106 94 146 220 199 246 167 155 154 157 275 337 2 253 110 192 211 223 216
323 322 310 299 278 254 248 244 232 225 220 218 215 184 167 244 198 207 212 205 188 230 225 212 215 190 132 69 9 326 305 311 86 52 199 161 135 262 249 266 286 83 202 190 265 358 205
315 331 320 313 287 256 240 239 227 220 221 218 220 211 165 139 233 172 166 175 184 191 298 219 62 162 82 98 117 230 237 235 199 121 60 90 96 152 173 229 250 274 310 228 256 15 11
326 322 329 323 292 255 238 230 224 217 215 214 220 212 184 187 220 158 195 173 149 140 164 141 176 169 39 139 187 210 243 196 213 184 172 153 172 208 215 251 283 269 307 310 73 255 337
336 333 335 345 303 265 225 219 219 213 213 213 210 205 198 202 258 187 179 146 136 160 154 170 103 216 75 181 179 218 201 221 238 168 177 175 158 206 170 212 261 203 36 32 213 310 323
344 347 341 350 356 237 211 213 214 211 209 213 202 202 206 208 265 222 224 227 212 178 138 186 179 166 173 121 245 129 213 191 199 242 334 195 203 224 203 233 31 196 349 64 229 287 310